Cloud_Cover
8 4 0 5 5 5 5 5 4 4 0 0 0 0 0 1 35 6 5 0 0 0 0 5 2 0 0 0 0 35 50 5 7 23 0 51 100 100 100 100 100 100 100
5 5 5 5 0 0 0 0 0 0 0 0 0 0 30 100 100 65 1 0 0 0 0 5 5 0 0 2 5 0 9 4 1 8 10 5 85 91 93 100 100 100 100
5 3 3 0 0 0 0 0 0 0 0 0 5 35 45 69 7 4 0 4 11 9 1 0 1 1 0 0 0 0 1 4 5 5 64 62 11 100 97 89 100 100 100
4 0 0 0 0 0 0 0 0 2 2 1 94 100 67 65 6 11 58 12 71 100 79 42 100 34 5 0 0 2 0 0 26 32 16 5 58 23 96 64 98 100 100
5 0 0 1 0 0 0 0 0 0 0 27 100 100 100 31 38 5 92 5 98 100 97 23 97 98 5 1 0 0 1 0 0 88 99 73 77 18 84 100 98 100 100
15 4 2 5 5 0 4 0 4 0 3 78 100 99 86 5 5 33 29 70 5 100 100 100 19 5 2 8 0 0 2 0 0 1 75 100 100 76 51 100 100 100 100
95 16 5 5 4 3 5 5 5 26 26 51 5 5 5 4 4 5 65 100 59 7 100 100 100 99 15 5 8 0 0 1 0 0 0 8 24 59 88 100 100 100 100
78 5 0 0 3 0 5 5 72 6 32 5 3 4 31 0 0 4 2 5 0 0 11 38 27 41 14 3 0 0 0 0 0 0 0 0 0 1 9 98 100 100 100
15 1 0 0 0 4 5 5 2 58 42 1 0 0 1 55 30 2 0 0 0 0 0 0 1 0 0 0 0 0 0 0 0 0 0 0 0 0 2 14 97 100 100
12 1 0 10 3 3 1 4 2 2 0 0 0 0 0 0 0 4 5 5 4 10 0 3 0 0 0 0 0 0 0 0 0 0 0 0 0 0 0 0 90 100 100
6 1 0 22 23 5 5 6 0 0 0 0 0 0 0 0 0 0 0 0 0 0 43 5 5 0 16 13 3 0 0 0 0 0 0 0 0 11 0 0 4 100 100
3 5 5 12 5 0 0 0 0 0 0 0 0 0 0 0 1 0 0 0 0 2 3 3 4 2 0 0 0 0 7 0 0 0 0 0 0 29 9 35 0 63 100
5 5 6 5 2 0 0 0 0 0 0 0 0 0 0 0 0 0 0 0 0 0 5 5 5 4 0 0 0 0 0 4 0 0 1 0 0 4 79 76 100 30 97
4 5 5 4 5 0 0 0 0 0 0 0 0 0 7 4 1 2 11 2 6 9 6 5 5 5 0 3 0 0 0 0 3 7 9 0 1 0 33 84 100 17 29
51 4 5 23 5 5 0 0 0 0 0 0 0 0 2 9 11 5 5 11 13 6 5 0 0 4 17 3 0 0 0 0 0 47 28 68 20 0 34 82 83 100 69
44 100 100 97 99 5 0 0 0 0 0 0 0 0 0 2 17 16 16 16 30 12 4 0 0 17 30 23 5 0 1 5 0 25 90 96 71 0 4 56 67 82 99
6 1 16 10 5 2 0 0 0 0 0 8 16 0 0 9 16 13 24 33 36 12 3 2 3 33 44 27 2 4 5 0 4 23 47 92 2 0 0 31 69 83 82
16 5 18 5 0 0 0 0 0 0 0 10 11 8 0 5 6 12 25 22 12 15 7 16 19 48 52 34 5 5 3 5 5 5 8 53 38 16 0 3 21 48 100
100 100 20 5 5 0 0 2 5 5 0 5 14 20 7 18 12 27 76 38 57 39 40 25 30 8 46 32 4 2 7 5 44 42 79 99 85 47 21 5 64 97 100
26 100 79 5 0 0 5 5 5 5 0 4 12 6 18 74 76 75 22 6 55 95 61 56 8 22 5 1 11 52 68 37 73 87 100 100 100 61 50 47 100 100 100
87 75 100 0 0 5 5 5 5 0 0 4 5 5 11 97 100 95 71 65 86 100 100 50 6 25 50 45 99 68 100 100 100 92 100 100 100 100 100 100 100 100 100
58 5 5 0 0 0 2 5 3 0 0 8 7 24 53 96 100 72 84 96 100 100 81 70 17 30 33 34 24 35 52 8 98 100 100 100 98 100 100 100 100 100 100
4 5 0 0 0 0 5 3 0 0 0 0 46 100 100 100 100 96 100 63 76 40 54 100 5 6 29 86 14 4 18 5 78 81 100 100 100 100 100 100 100 100 100
0 0 0 0 0 4 2 0 0 0 3 6 99 56 100 83 92 35 50 72 19 29 35 66 5 79 99 89 50 39 1 2 24 72 100 100 100 100 100 100 100 100 100
0 0 0 0 0 0 0 0 0 0 5 44 18 5 100 100 100 67 94 58 18 97 20 30 76 96 87 82 95 100 100 84 53 31 100 100 100 100 100 100 100 100 100
0 0 0 0 0 0 0 0 0 5 6 57 74 57 38 98 84 25 71 14 76 25 5 6 63 94 38 75 98 100 100 73 52 100 100 100 100 100 100 100 100 100 100